Home > Time Zones > World Clock > Weather > Mali > Bamako > Past weeks

Flag for Mali Weather past 2 weeks in Bamako, Mali

Now
90 °F

Thunderstorms. Scattered clouds.


Feels Like: 98 °F
Forecast: 73 / 90 °F
Wind: 2 mph from North

Location: Bamako / Senou

Current Time: Jul 26, 2014 at 1:31:10 PM

Latest Report: Jul 26, 2014 at 1:00 PM


Visibility: N/A

Pressure: 29.95 "Hg

Humidity: 59%

Dew point: 73 °F

Location of BamakoLocation

Historic Weather in Bamako — Graph

°F

Bamako temperature yesterday

Maximum temperature yesterday: 82 °F (at 3:30 PM)
Minimum temperature yesterday: 70 °F (at 4:00 AM)
Average temperature yesterday: 76 °F

Past Weeks' High & Low Weather Summary

 TemperatureHumidityPressure
High95 °F (Jul 11, 3:00 PM)100% (Jul 12, 4:00 AM)30.09 "Hg (Jul 12, 4:00 AM)
Low70 °F (Jul 17, 8:30 PM)46% (Jul 21, 3:00 PM)29.74 "Hg (Jul 22, 3:00 PM)
Average81 °F80%29.99 "Hg
* Reported Jul 11 12:00 Noon — Jul 26 12:00 Noon, Bamako, Weather by CustomWeather, © 2014

Note: Actual official high and low records may vary slightly from our data, if they occured in-between our weather recording intervals... More about our weather records

Advertising

Bamako weather history for previous 24 hours

 ConditionsComfort  
Time TempWeatherWind HumidityBarometerVisibility
12:00 PM
Jul 26
88 °FScattered clouds.3 mph66%29.98 "HgN/A
11:30 AM88 °FScattered clouds.3 mph62%30.01 "HgN/A
11:00 AM86 °FPartly sunny.5 mph70%30.01 "HgN/A
10:30 AM84 °FPartly sunny.3 mph74%30.01 "HgN/A
10:00 AM82 °FPartly sunny.6 mph84%30.01 "HgN/A
9:30 AM81 °FPartly sunny.6 mph89%30.01 "HgN/A
9:00 AM81 °FPartly sunny.7 mph89%30.01 "HgN/A
8:30 AM81 °FSunny.6 mph89%30.01 "Hg10 mi
8:00 AM79 °FSunny.6 mph94%30.01 "Hg10 mi
7:30 AM77 °FClear.5 mph100%29.98 "Hg5 mi
7:00 AM75 °FPartly sunny.1 mph100%29.98 "Hg5 mi
6:30 AM75 °FPartly sunny.2 mph100%29.98 "Hg5 mi
6:00 AM75 °FPassing clouds.2 mph100%29.98 "Hg5 mi
5:30 AM75 °FPassing clouds.2 mph100%29.98 "Hg5 mi
5:00 AM75 °FPassing clouds.2 mph100%29.95 "Hg5 mi
4:30 AM75 °FPassing clouds.2 mph100%29.95 "Hg5 mi
4:00 AM75 °FPassing clouds.2 mph100%29.95 "Hg5 mi
3:30 AM75 °FPassing clouds.3 mph100%29.95 "Hg5 mi
3:00 AM77 °FPassing clouds.2 mph100%29.95 "Hg5 mi
2:30 AM77 °FPassing clouds.3 mph100%29.95 "Hg5 mi
2:00 AM77 °FPassing clouds.2 mph100%29.98 "Hg5 mi
1:30 AM77 °FPassing clouds.1 mph100%29.98 "Hg5 mi
1:00 AM77 °FPassing clouds.No wind100%29.98 "Hg5 mi
12:30 AM77 °FPassing clouds.1 mph100%29.98 "Hg5 mi
12:00 AM77 °FPassing clouds.2 mph100%29.98 "Hg5 mi
11:30 PM
Jul 25
77 °FPassing clouds.2 mph100%30.01 "Hg5 mi
11:00 PM77 °FPassing clouds.2 mph100%30.01 "Hg5 mi
10:30 PM77 °FPassing clouds.No wind100%29.98 "Hg5 mi
10:00 PM77 °FPassing clouds.1 mph100%29.98 "Hg5 mi
9:30 PM77 °FPassing clouds.3 mph100%29.98 "Hg5 mi
9:00 PM77 °FPassing clouds.5 mph100%29.95 "Hg5 mi
8:30 PM79 °FPassing clouds.1 mph94%29.95 "Hg5 mi
8:00 PM79 °FPassing clouds.2 mph94%29.95 "Hg5 mi
7:30 PM79 °FPassing clouds.1 mph89%29.95 "Hg5 mi
7:00 PM79 °FPassing clouds.2 mph94%29.95 "Hg5 mi
6:30 PM79 °FPartly sunny.2 mph84%29.92 "Hg5 mi
6:00 PM81 °FPartly sunny.5 mph84%29.92 "Hg5 mi
5:30 PM81 °FPartly sunny.6 mph79%29.92 "Hg5 mi
5:00 PM81 °FPartly sunny.6 mph84%29.92 "Hg5 mi
4:00 PM82 °FBroken clouds.2 mph79%29.92 "Hg5 mi
3:30 PM82 °FBroken clouds.5 mph79%29.92 "Hg5 mi
3:00 PM81 °FBroken clouds.5 mph79%29.92 "Hg5 mi
2:30 PM81 °FBroken clouds.6 mph84%29.95 "Hg5 mi
2:00 PM79 °FBroken clouds.6 mph89%29.95 "Hg5 mi
1:30 PM79 °FBroken clouds.7 mph84%29.95 "Hg5 mi
1:00 PM79 °FBroken clouds.5 mph84%29.98 "Hg5 mi
Weather by CustomWeather, © 2014

See weather overviewHow to use our weather pages